STARLINK-33831, 63595

Orbit data source: Space-Track

STARLINK-33831, 63595 is a payload satellite owned by SpaceX/Seattle (US) in LEO that was launched on Mon, 14 Apr 2025 UTC via an FALCON 9 launch vehicle from the Air Force Eastern Test Range (AFETR). Payload-class satellites include a variety of spacecraft equipped with specific instruments for various scientific and technological missions. These include communications satellites like Starlink; space stations such as the ISS; scientific satellites like the Hubble; Earth observation satellites from companies like Planet Labs, Umbra, and HawkEye 360; GPS; miniature CubeSats for education and research; and military/defense satellites.

Loading next visibility...
Identifier
63595, 2025-076AC
Orbit
LEO
Country
Flag of USUS
Related business
Manufacturer
SpaceX/Seattle
Mission
Operational Commercial Communications
Bus & Motor
STARLINK V2MO, Unknown motor
Mass
575 kg wet, ~530 kg dry
Launch date (UTC)
2025-04-14 (7 months ago)
Launch vehicle
FALCON 9
Launch site
Air Force Eastern Test Range (AFETR)
Object type
Payload
Rocket body
Debris
Shape & HBR
Box + 2 Pan, 17.7 m
Radar Cross Section
36.964 m², Large (>1 m²)

Expand to show TLE details & history
Last TLE update: 1 day ago

TLE from 1 day ago
0 STARLINK-33831
1 63595U 25076AC  25310.31860208  .00037125  00000-0  13499-2 0  9993
2 63595  42.9998 298.2577 0001258 272.2444  87.8264 15.27626622 32966
Epoch: 2025-11-06T07:38Z
TLE epoch observation values (Epoch: 2025-11-06T07:38:47.219Z)
Latitude
-0°
Longitude
137.78232°
Altitude
482.652 km
Speed
7.626 km/s
True Right ascension
19h 53m 01s
True Declination
0° 00' 00"
Sunlit
Object was in daylight at epoch
Visualization orbit readout
Latitude
Unknown
Longitude
Unknown
Altitude
Unknown
Speed
Unknown
Apparent Right ascension
Unknown
Apparent Declination
Unknown
Sunlit
N/A
Visualization observer readout
Local Sidereal Time
09:17:30
Azimuth
Unknown
Elevation
Unknown
Doppler factor
Unknown
Orbital elements
Apogee altitude
485.718 km
Perigee altitude
483.991 km
Semi-major axis
6,862.992 km
Eccentricity
0.00013
Inclination
42.9998°
RAAN
298.2577°
Arg. of periapsis
272.2444°
True anomaly
87.84081°
Mean anomaly
87.8264°
Eccentric anomaly
87.8336°
Mean motion
3.81745 °/min
Orbital period
94.3 mins
BSTAR
0.0013499
Loading maneuver chart data...
Computing Atmospheric mass density...
Loading historical data...
Loading historical data...
Loading historical data...
Loading historical data...
Loading historical data...
Loading historical data...
Loading historical data...

Documentation

Showing up to 5 results
|